| time (UTC) | temp F | wind direction | speed knots | gust knots | rain 1hr in | rain 24hr in | rain mn in | humidity % | barometer mb |
| 20260504201540 | 68 | 240 | 7.0 | 20.0 | 0.00 | 0.00 | 0.00 | 42 | 1006.2 |
| 20260504201025 | 68 | 250 | 7.0 | 20.0 | 0.00 | 0.00 | 0.00 | 40 | 1006.3 |
| 20260504200522 | 68 | 251 | 6.1 | 15.6 | 0.00 | 0.00 | 0.00 | 40 | 1006.3 |
| 20260504200037 | 68 | 244 | 7.8 | 15.6 | 0.00 | 0.00 | 0.00 | 44 | 1006.4 |
| 20260504195523 | 68 | 296 | 7.8 | 14.8 | 0.00 | 0.00 | 0.00 | 42 | 1006.4 |
| 20260504195023 | 68 | 247 | 5.2 | 14.8 | 0.00 | 0.00 | 0.00 | 43 | 1006.5 |
| 20260504194545 | 67 | 298 | 7.0 | 16.5 | 0.00 | 0.00 | 0.00 | 45 | 1006.5 |
| 20260504194022 | 67 | 224 | 7.8 | 16.5 | 0.00 | 0.00 | 0.00 | 44 | 1006.5 |
| 20260504193523 | 67 | 239 | 7.0 | 13.9 | 0.00 | 0.00 | 0.00 | 44 | 1006.5 |
| 20260504193048 | 67 | 240 | 7.0 | 13.9 | 0.00 | 0.00 | 0.00 | 44 | 1006.7 |
| 20260504192522 | 67 | 252 | 4.3 | 13.9 | 0.00 | 0.00 | 0.00 | 48 | 1006.7 |
| 20260504192023 | 67 | 244 | 2.6 | 13.9 | 0.00 | 0.00 | 0.00 | 46 | 1006.9 |
| 20260504191544 | 67 | 286 | 3.5 | 15.6 | 0.00 | 0.00 | 0.00 | 45 | 1006.9 |
| 20260504191023 | 67 | 298 | 5.2 | 15.6 | 0.00 | 0.00 | 0.00 | 44 | 1006.9 |
| 20260504190522 | 67 | 293 | 6.1 | 15.6 | 0.00 | 0.00 | 0.00 | 44 | 1006.9 |
| 20260504190105 | 67 | 280 | 4.3 | 15.6 | 0.00 | 0.00 | 0.00 | 44 | 1006.9 |
| 20260504185527 | 67 | 280 | 6.1 | 13.0 | 0.00 | 0.00 | 0.00 | 46 | 1006.9 |
| 20260504185022 | 66 | 245 | 4.3 | 13.0 | 0.00 | 0.00 | 0.00 | 49 | 1007.0 |
| 20260504184538 | 65 | 265 | 5.2 | 15.6 | 0.00 | 0.00 | 0.00 | 50 | 1007.0 |
| 20260504184024 | 64 | 360 | 6.1 | 15.6 | 0.00 | 0.00 | 0.00 | 49 | 1007.1 |
| 20260504183520 | 65 | 360 | 10.4 | 19.1 | 0.00 | 0.00 | 0.00 | 48 | 1007.1 |
| 20260504183043 | 65 | 360 | 8.7 | 19.1 | 0.00 | 0.00 | 0.00 | 48 | 1007.0 |
| 20260504182530 | 65 | 360 | 9.6 | 19.1 | 0.00 | 0.00 | 0.00 | 50 | 1007.2 |
| 20260504182027 | 64 | 360 | 12.2 | 19.1 | 0.00 | 0.00 | 0.00 | 50 | 1007.3 |
| 20260504181550 | 64 | 360 | 6.1 | 19.1 | 0.00 | 0.00 | 0.00 | 50 | 1007.2 |
| 20260504181020 | 64 | 360 | 8.7 | 19.1 | 0.00 | 0.00 | 0.00 | 50 | 1007.2 |
| 20260504180527 | 65 | 360 | 6.1 | 17.4 | 0.00 | 0.00 | 0.00 | 48 | 1007.3 |
| 20260504180045 | 65 | 360 | 7.8 | 15.6 | 0.00 | 0.00 | 0.00 | 49 | 1007.2 |
| 20260504175527 | 65 | 360 | 6.1 | 18.2 | 0.00 | 0.00 | 0.00 | 50 | 1007.3 |
| 20260504175023 | 64 | 272 | 7.0 | 19.1 | 0.00 | 0.00 | 0.00 | 50 | 1007.4 |
| 20260504174546 | 64 | 360 | 5.2 | 19.1 | 0.00 | 0.00 | 0.00 | 54 | 1007.4 |
| 20260504174028 | 64 | 257 | 7.0 | 13.9 | 0.00 | 0.00 | 0.00 | 51 | 1007.4 |
| 20260504173525 | 63 | 218 | 4.3 | 13.9 | 0.00 | 0.00 | 0.00 | 52 | 1007.5 |
| 20260504173044 | 62 | 207 | 6.1 | 17.4 | 0.00 | 0.00 | 0.00 | 52 | 1007.5 |
| 20260504172526 | 62 | 222 | 7.8 | 17.4 | 0.00 | 0.00 | 0.00 | 51 | 1007.5 |
| 20260504172025 | 63 | 236 | 4.3 | 12.2 | 0.00 | 0.00 | 0.00 | 51 | 1007.6 |
| 20260504171546 | 62 | 295 | 6.1 | 14.8 | 0.00 | 0.00 | 0.00 | 49 | 1007.4 |
| 20260504171024 | 62 | 220 | 5.2 | 16.5 | 0.00 | 0.00 | 0.00 | 50 | 1007.5 |
| 20260504170525 | 62 | 258 | 7.0 | 16.5 | 0.00 | 0.00 | 0.00 | 52 | 1007.6 |
| 20260504151024 | 58 | 217 | 6.1 | 13.9 | 0.00 | 0.00 | 0.00 | 55 | 1008.6 |
| 20260504150531 | 58 | 256 | 7.8 | 19.1 | 0.00 | 0.00 | 0.00 | 54 | 1008.7 |
| 20260504141024 | 54 | 232 | 7.0 | 15.6 | 0.00 | 0.00 | 0.00 | 56 | 1008.6 |
| 20260504140525 | 54 | 205 | 5.2 | 15.6 | 0.00 | 0.00 | 0.00 | 59 | 1008.7 |
| 20260504130525 | 51 | 234 | 6.1 | 12.2 | 0.00 | 0.00 | 0.00 | 60 | 1009.1 |
| 20260504110524 | 45 | 206 | 4.3 | 11.3 | 0.00 | 0.00 | 0.00 | 67 | 1009.4 |
| 20260504100522 | 42 | 194 | 2.6 | 6.1 | 0.00 | 0.00 | 0.00 | 68 | 1009.4 |
| 20260504081542 | 44 | 214 | 2.6 | 6.1 | 0.00 | 0.00 | 0.00 | 66 | 1009.4 |
| 20260504081025 | 44 | 202 | 2.6 | 5.2 | 0.00 | 0.00 | 0.00 | 65 | 1009.4 |
| 20260504080525 | 44 | 219 | 1.7 | 4.3 | 0.00 | 0.00 | 0.00 | 65 | 1009.4 |
| 20260504050523 | 47 | 180 | 0.9 | 2.6 | 0.00 | 0.00 | 0.00 | 66 | 1009.6 |
| 20260504045523 | 47 | 180 | 1.7 | 3.5 | 0.00 | 0.00 | 0.00 | 65 | 1009.8 |
| 20260504045021 | 47 | 186 | 0.9 | 3.5 | 0.00 | 0.00 | 0.00 | 66 | 1009.8 |
| 20260504044541 | 47 | 186 | 1.7 | 3.5 | 0.00 | 0.00 | 0.00 | 65 | 1009.8 |
| 20260504044028 | 47 | 186 | 0.9 | 3.5 | 0.00 | 0.00 | 0.00 | 65 | 1009.7 |
| 20260504043525 | 47 | 186 | 1.7 | 3.5 | 0.00 | 0.00 | 0.00 | 66 | 1009.8 |
| 20260504043038 | 47 | 203 | 1.7 | 2.6 | 0.00 | 0.00 | 0.00 | 67 | 1009.8 |
| 20260504042525 | 47 | 203 | 0.9 | 2.6 | 0.00 | 0.00 | 0.00 | 67 | 1009.8 |
| 20260504042024 | 47 | 203 | 0.9 | 2.6 | 0.00 | 0.00 | 0.00 | 66 | 1009.8 |
| 20260504041544 | 47 | 203 | 0.9 | 2.6 | 0.00 | 0.00 | 0.00 | 66 | 1009.9 |
| 20260504041024 | 47 | 218 | 0.0 | 2.6 | 0.00 | 0.00 | 0.00 | 66 | 1009.9 |
| 20260504040524 | 46 | 0 | 0.0 | 3.5 | 0.00 | 0.00 | 0.00 | 66 | 1010.0 |
| 20260504040048 | 46 | 0 | 0.9 | 3.5 | 0.00 | 0.00 | 0.00 | 66 | 1009.9 |
| 20260504035524 | 46 | 198 | 1.7 | 3.5 | 0.00 | 0.00 | 0.00 | 67 | 1009.9 |
| 20260504035024 | 46 | 182 | 1.7 | 3.5 | 0.00 | 0.00 | 0.00 | 67 | 1009.8 |
| 20260504034543 | 46 | 182 | 1.7 | 3.5 | 0.00 | 0.00 | 0.00 | 68 | 1009.9 |
| 20260504034029 | 46 | 195 | 1.7 | 3.5 | 0.00 | 0.00 | 0.00 | 68 | 1010.0 |
| 20260504033524 | 47 | 221 | 0.9 | 2.6 | 0.00 | 0.00 | 0.00 | 68 | 1010.0 |
| 20260504033041 | 47 | 260 | 0.9 | 1.7 | 0.00 | 0.00 | 0.00 | 67 | 1010.1 |
| 20260504032525 | 47 | 0 | 0.9 | 2.6 | 0.00 | 0.00 | 0.00 | 67 | 1010.2 |
| 20260504032025 | 47 | 0 | 0.0 | 3.5 | 0.00 | 0.00 | 0.00 | 66 | 1010.3 |
| 20260504031536 | 47 | 294 | 1.7 | 3.5 | 0.00 | 0.00 | 0.00 | 66 | 1010.3 |
| 20260504031026 | 47 | 250 | 0.9 | 8.7 | 0.00 | 0.00 | 0.00 | 65 | 1010.4 |
| 20260504030524 | 47 | 272 | 1.7 | 8.7 | 0.00 | 0.00 | 0.00 | 65 | 1010.4 |
| 20260504030043 | 47 | 229 | 3.5 | 8.7 | 0.00 | 0.00 | 0.00 | 65 | 1010.5 |
| 20260504025525 | 47 | 279 | 2.6 | 7.8 | 0.00 | 0.00 | 0.00 | 65 | 1010.6 |
| 20260504025024 | 47 | 340 | 0.9 | 9.6 | 0.00 | 0.00 | 0.00 | 66 | 1010.7 |
| 20260504024545 | 47 | 299 | 2.6 | 9.6 | 0.00 | 0.00 | 0.00 | 65 | 1010.8 |
| 20260504024025 | 47 | 278 | 2.6 | 7.8 | 0.00 | 0.00 | 0.00 | 65 | 1010.8 |
| 20260504023525 | 47 | 294 | 1.7 | 3.5 | 0.00 | 0.00 | 0.00 | 65 | 1010.9 |
| 20260504023041 | 47 | 293 | 0.9 | 2.6 | 0.00 | 0.00 | 0.00 | 65 | 1010.8 |
| 20260504022528 | 47 | 240 | 0.9 | 2.6 | 0.00 | 0.00 | 0.00 | 64 | 1010.7 |
| 20260504022024 | 47 | 0 | 0.9 | 2.6 | 0.00 | 0.00 | 0.00 | 64 | 1010.7 |
| 20260504021540 | 47 | 292 | 0.0 | 7.8 | 0.00 | 0.00 | 0.00 | 64 | 1010.7 |
| 20260504021022 | 47 | 275 | 1.7 | 7.8 | 0.00 | 0.00 | 0.00 | 64 | 1010.7 |
| 20260504020524 | 47 | 320 | 1.7 | 8.7 | 0.00 | 0.00 | 0.00 | 64 | 1010.6 |
| 20260504020038 | 47 | 300 | 2.6 | 8.7 | 0.00 | 0.00 | 0.00 | 64 | 1010.6 |
| 20260504015525 | 47 | 300 | 0.9 | 9.6 | 0.00 | 0.00 | 0.00 | 64 | 1010.6 |
| 20260504015031 | 47 | 221 | 0.9 | 9.6 | 0.00 | 0.00 | 0.00 | 64 | 1010.5 |
| 20260504014554 | 47 | 209 | 4.3 | 9.6 | 0.00 | 0.00 | 0.00 | 64 | 1010.5 |
| 20260504014027 | 47 | 298 | 0.0 | 6.1 | 0.00 | 0.00 | 0.00 | 65 | 1010.6 |
| 20260504013524 | 47 | 178 | 2.6 | 6.1 | 0.00 | 0.00 | 0.00 | 65 | 1010.6 |
| 20260504013041 | 47 | 221 | 0.9 | 6.1 | 0.00 | 0.00 | 0.00 | 64 | 1010.6 |
| 20260504012527 | 47 | 232 | 0.0 | 3.5 | 0.00 | 0.00 | 0.00 | 64 | 1010.4 |
| 20260504012024 | 47 | 0 | 0.0 | 4.3 | 0.00 | 0.00 | 0.00 | 64 | 1010.4 |
| 20260504011541 | 47 | 230 | 1.7 | 4.3 | 0.00 | 0.00 | 0.00 | 63 | 1010.4 |
| 20260504011024 | 47 | 219 | 1.7 | 7.0 | 0.00 | 0.00 | 0.00 | 63 | 1010.4 |
| 20260504010527 | 47 | 17 | 1.7 | 7.0 | 0.00 | 0.00 | 0.00 | 62 | 1010.3 |
| 20260504010039 | 48 | 300 | 2.6 | 7.8 | 0.00 | 0.00 | 0.00 | 61 | 1010.3 |
| 20260504005524 | 48 | 289 | 3.5 | 8.7 | 0.00 | 0.00 | 0.00 | 60 | 1010.3 |
| 20260504005026 | 48 | 283 | 2.6 | 13.9 | 0.00 | 0.00 | 0.00 | 60 | 1010.3 |
| 20260504004540 | 48 | 321 | 3.5 | 13.9 | 0.00 | 0.00 | 0.00 | 59 | 1010.3 |
| 20260504004024 | 48 | 293 | 5.2 | 13.9 | 0.00 | 0.00 | 0.00 | 59 | 1010.4 |
| 20260504003524 | 48 | 256 | 2.6 | 13.0 | 0.00 | 0.00 | 0.00 | 60 | 1010.5 |
| 20260504003040 | 48 | 310 | 4.3 | 13.0 | 0.00 | 0.00 | 0.00 | 59 | 1010.5 |
| 20260504002524 | 49 | 296 | 6.1 | 13.0 | 0.00 | 0.00 | 0.00 | 57 | 1010.3 |
| 20260504002026 | 49 | 289 | 1.7 | 9.6 | 0.00 | 0.00 | 0.00 | 57 | 1010.3 |
| 20260504001548 | 49 | 334 | 3.5 | 10.4 | 0.00 | 0.00 | 0.00 | 55 | 1010.2 |
| 20260504001025 | 49 | 275 | 5.2 | 12.2 | 0.00 | 0.00 | 0.00 | 55 | 1010.1 |
| 20260504000524 | 49 | 285 | 3.5 | 12.2 | 0.00 | 0.00 | 0.00 | 55 | 1010.2 |
| 20260504000048 | 49 | 259 | 3.5 | 8.7 | 0.00 | 0.00 | 0.00 | 54 | 1010.1 |
| 20260503235522 | 49 | 275 | 2.6 | 7.8 | 0.00 | 0.00 | 0.00 | 55 | 1010.0 |
| 20260503235024 | 48 | 289 | 3.5 | 7.8 | 0.00 | 0.00 | 0.00 | 55 | 1010.0 |
| 20260503234538 | 48 | 338 | 1.7 | 5.2 | 0.00 | 0.00 | 0.00 | 56 | 1009.9 |
| 20260503234022 | 48 | 290 | 0.9 | 10.4 | 0.00 | 0.00 | 0.00 | 57 | 1009.8 |
| 20260503233522 | 49 | 298 | 1.7 | 10.4 | 0.00 | 0.00 | 0.00 | 56 | 1009.8 |
| 20260503233040 | 48 | 296 | 2.6 | 8.7 | 0.00 | 0.00 | 0.00 | 55 | 1009.8 |
| 20260503232526 | 49 | 290 | 0.9 | 4.3 | 0.00 | 0.00 | 0.00 | 55 | 1009.7 |
| 20260503232024 | 49 | 317 | 0.9 | 4.3 | 0.00 | 0.00 | 0.00 | 56 | 1009.6 |
| 20260503231543 | 49 | 271 | 0.9 | 5.2 | 0.00 | 0.00 | 0.00 | 55 | 1009.6 |
| 20260503231025 | 49 | 315 | 1.7 | 7.0 | 0.00 | 0.00 | 0.00 | 54 | 1009.6 |
| 20260503230527 | 49 | 288 | 2.6 | 11.3 | 0.00 | 0.00 | 0.00 | 54 | 1009.6 |
| 20260503230045 | 50 | 263 | 1.7 | 11.3 | 0.00 | 0.00 | 0.00 | 54 | 1009.6 |
| 20260503225526 | 50 | 296 | 0.9 | 13.9 | 0.00 | 0.00 | 0.00 | 54 | 1009.7 |
| 20260503225026 | 50 | 290 | 4.3 | 15.6 | 0.00 | 0.00 | 0.00 | 53 | 1009.5 |
| 20260503224543 | 50 | 281 | 7.8 | 15.6 | 0.00 | 0.00 | 0.00 | 52 | 1009.5 |
| 20260503224028 | 50 | 268 | 6.1 | 11.3 | 0.00 | 0.00 | 0.00 | 53 | 1009.6 |
| 20260503223528 | 50 | 229 | 4.3 | 10.4 | 0.00 | 0.00 | 0.00 | 54 | 1009.7 |
| 20260503223041 | 50 | 326 | 4.3 | 12.2 | 0.00 | 0.00 | 0.00 | 55 | 1009.8 |
| 20260503222525 | 50 | 329 | 5.2 | 12.2 | 0.00 | 0.00 | 0.00 | 54 | 1009.8 |
| 20260503222027 | 50 | 285 | 5.2 | 16.5 | 0.00 | 0.00 | 0.00 | 53 | 1009.8 |
| 20260503221548 | 50 | 347 | 5.2 | 16.5 | 0.00 | 0.00 | 0.00 | 55 | 1009.8 |
| 20260503221026 | 49 | 294 | 4.3 | 12.2 | 0.00 | 0.00 | 0.00 | 55 | 1009.8 |
| 20260503220526 | 49 | 285 | 6.1 | 13.9 | 0.00 | 0.00 | 0.00 | 53 | 1009.9 |
| 20260503220038 | 49 | 287 | 2.6 | 17.4 | 0.00 | 0.00 | 0.00 | 55 | 1009.8 |
| 20260503215525 | 49 | 312 | 7.8 | 17.4 | 0.00 | 0.00 | 0.00 | 54 | 1009.8 |
| 20260503215026 | 49 | 289 | 7.0 | 15.6 | 0.00 | 0.00 | 0.00 | 54 | 1009.8 |
| 20260503214537 | 49 | 293 | 6.1 | 20.9 | 0.00 | 0.00 | 0.00 | 54 | 1009.8 |
| 20260503214026 | 49 | 347 | 5.2 | 20.9 | 0.00 | 0.00 | 0.00 | 54 | 1009.8 |
| 20260503213525 | 50 | 250 | 6.1 | 13.9 | 0.00 | 0.00 | 0.00 | 54 | 1009.8 |
| 20260503213043 | 50 | 292 | 4.3 | 13.9 | 0.00 | 0.00 | 0.00 | 54 | 1009.7 |
| 20260503212524 | 50 | 278 | 4.3 | 13.9 | 0.00 | 0.00 | 0.00 | 55 | 1009.7 |
| 20260503212025 | 50 | 282 | 2.6 | 13.9 | 0.00 | 0.00 | 0.00 | 57 | 1009.5 |
| 20260503211547 | 50 | 295 | 7.0 | 13.9 | 0.00 | 0.00 | 0.00 | 52 | 1009.5 |
| 20260503211024 | 50 | 274 | 3.5 | 11.3 | 0.00 | 0.00 | 0.00 | 58 | 1009.5 |
| 20260503210526 | 49 | 298 | 5.2 | 13.9 | 0.00 | 0.00 | 0.00 | 54 | 1009.6 |
| 20260503210049 | 49 | 299 | 5.2 | 13.9 | 0.00 | 0.00 | 0.00 | 54 | 1009.6 |
| 20260503205528 | 49 | 290 | 6.1 | 13.9 | 0.00 | 0.00 | 0.00 | 52 | 1009.6 |
| 20260503205026 | 50 | 9 | 4.3 | 10.4 | 0.00 | 0.00 | 0.00 | 52 | 1009.6 |
| 20260503204558 | 50 | 352 | 3.5 | 12.2 | 0.00 | 0.00 | 0.00 | 53 | 1009.6 |
| 20260503204026 | 50 | 311 | 3.5 | 12.2 | 0.00 | 0.00 | 0.00 | 54 | 1009.6 |
| 20260503203524 | 50 | 331 | 7.0 | 14.8 | 0.00 | 0.00 | 0.00 | 52 | 1009.7 |
| 20260503203049 | 49 | 319 | 4.3 | 14.8 | 0.00 | 0.00 | 0.00 | 54 | 1009.8 |
| 20260503202525 | 49 | 0 | 6.1 | 14.8 | 0.00 | 0.00 | 0.00 | 51 | 1009.8 |
| 20260503202026 | 49 | 292 | 6.1 | 14.8 | 0.00 | 0.00 | 0.00 | 51 | 1009.9 |